Weather reports worldwide

Advertisment
Ioannina, Greece (16642): temperature & dewpoint: 15.05.2019 14:00:00 - 21.05.2019 14:00:00 (EEST)Ioannina, Greece (16642): reduced air pressure: 15.05.2019 14:00:00 - 21.05.2019 14:00:00 (EEST)Ioannina, Greece (16642): visibility: 15.05.2019 14:00:00 - 21.05.2019 14:00:00 (EEST)
Date & Time tt [°C] td [°C] ppp [hPa] vv [km]
21.05.2019 14:00:00 23,0 9,0 - 10
21.05.2019 13:00:00 22,0 9,0 - 10
21.05.2019 12:00:00 20,2 8,4 1014,6 10
21.05.2019 11:00:00 18,0 9,0 - 10
21.05.2019 10:00:00 15,0 9,0 - 10
21.05.2019 09:00:00 11,6 10,4 1015,6 10
21.05.2019 08:00:00 - - - -
21.05.2019 07:00:00 - - - -
21.05.2019 06:00:00 - - - -
21.05.2019 05:00:00 - - - -
21.05.2019 04:00:00 - - - -
21.05.2019 03:00:00 - - - -
21.05.2019 02:00:00 - - - -
21.05.2019 01:00:00 - - - -
21.05.2019 00:00:00 - - - -
20.05.2019 23:00:00 - - - -
20.05.2019 22:00:00 17,0 12,0 - 10
20.05.2019 21:00:00 17,4 10,7 1013,1 10
20.05.2019 20:00:00 19,0 14,0 - 10
20.05.2019 19:00:00 20,0 12,0 - 10
20.05.2019 18:00:00 22,2 12,0 1011,8 10
20.05.2019 17:00:00 - - - -
20.05.2019 16:00:00 - - - -
20.05.2019 15:00:00 22,4 12,2 1012,0 10
20.05.2019 14:00:00 22,0 13,0 - 10
20.05.2019 13:00:00 21,0 10,0 - 10
20.05.2019 12:00:00 20,6 12,1 1012,7 10
20.05.2019 11:00:00 19,0 12,0 - 10
20.05.2019 10:00:00 17,0 11,0 - 10
20.05.2019 09:00:00 15,4 10,9 1012,0 10
20.05.2019 08:00:00 - - - -
20.05.2019 07:00:00 - - - -
20.05.2019 06:00:00 - - - -
20.05.2019 05:00:00 - - - -
20.05.2019 04:00:00 - - - -
20.05.2019 03:00:00 - - - -
20.05.2019 02:00:00 - - - -
20.05.2019 01:00:00 - - - -
20.05.2019 00:00:00 - - - -
19.05.2019 23:00:00 - - - -
19.05.2019 22:00:00 16,0 10,0 - 10
19.05.2019 21:00:00 18,0 9,3 1008,3 10
19.05.2019 20:00:00 21,0 10,0 - 10
19.05.2019 19:00:00 24,0 9,0 - 10
19.05.2019 18:00:00 24,0 6,8 1006,3 10
19.05.2019 17:00:00 - - - -
19.05.2019 16:00:00 - - - -
19.05.2019 15:00:00 25,2 6,5 1005,9 10
19.05.2019 14:00:00 24,0 4,0 - 10
19.05.2019 13:00:00 24,0 6,0 - 10
19.05.2019 12:00:00 21,2 10,7 1006,5 10
19.05.2019 11:00:00 17,0 11,0 - 10
19.05.2019 10:00:00 15,0 11,0 - 10
19.05.2019 09:00:00 12,4 11,3 1010,0 10
19.05.2019 08:00:00 - - - -
19.05.2019 07:00:00 - - - -
19.05.2019 06:00:00 - - - -
19.05.2019 05:00:00 - - - -
19.05.2019 04:00:00 - - - -
19.05.2019 03:00:00 - - - -
19.05.2019 02:00:00 - - - -
19.05.2019 01:00:00 - - - -
19.05.2019 00:00:00 - - - -
18.05.2019 23:00:00 - - - -
18.05.2019 22:00:00 - - - -
18.05.2019 21:00:00 17,0 10,7 1011,8 10
18.05.2019 20:00:00 22,0 13,0 - 10
18.05.2019 19:00:00 25,0 13,0 - 10
18.05.2019 18:00:00 26,4 11,9 1007,5 10
18.05.2019 17:00:00 - - - -
18.05.2019 16:00:00 - - - -
18.05.2019 15:00:00 26,0 9,9 1009,0 10
18.05.2019 14:00:00 25,0 10,0 - 10
18.05.2019 13:00:00 23,0 10,0 - 10
18.05.2019 12:00:00 20,6 11,3 1011,0 10
18.05.2019 11:00:00 17,0 11,0 - 10
18.05.2019 10:00:00 15,0 11,0 - 10
18.05.2019 09:00:00 12,0 12,0 1012,6 0,5
18.05.2019 08:00:00 - - - -
18.05.2019 07:00:00 - - - -
18.05.2019 06:00:00 - - - -
18.05.2019 05:00:00 - - - -
18.05.2019 04:00:00 - - - -
18.05.2019 03:00:00 - - - -
18.05.2019 02:00:00 - - - -
18.05.2019 01:00:00 - - - -
18.05.2019 00:00:00 10,4 10,0 1012,6 10
17.05.2019 23:00:00 11,0 11,0 - 10
17.05.2019 22:00:00 14,0 13,0 - 10
17.05.2019 21:00:00 15,0 12,8 1009,5 10
17.05.2019 20:00:00 17,0 13,0 - 10
17.05.2019 19:00:00 19,0 14,0 - 10
17.05.2019 18:00:00 19,4 13,5 1007,9 10
17.05.2019 17:00:00 - - - -
17.05.2019 16:00:00 - - - -
17.05.2019 15:00:00 21,0 7,6 1007,8 10
17.05.2019 14:00:00 20,0 9,0 - 10
17.05.2019 13:00:00 19,0 11,0 - 10
17.05.2019 12:00:00 16,4 12,1 1009,5 10
17.05.2019 11:00:00 15,0 11,0 - 10
17.05.2019 10:00:00 13,0 11,0 - 10
17.05.2019 09:00:00 9,8 9,4 1011,3 5
17.05.2019 08:00:00 - - - -
17.05.2019 07:00:00 - - - -
17.05.2019 06:00:00 - - - -
17.05.2019 05:00:00 - - - -
17.05.2019 04:00:00 - - - -
17.05.2019 03:00:00 - - - -
17.05.2019 02:00:00 - - - -
17.05.2019 01:00:00 - - - -
17.05.2019 00:00:00 - - - -
16.05.2019 23:00:00 - - - -
16.05.2019 22:00:00 12,0 11,0 - 10
16.05.2019 21:00:00 13,0 11,9 1010,3 10
16.05.2019 20:00:00 13,0 12,0 - 10
16.05.2019 19:00:00 14,0 13,0 - 10
16.05.2019 18:00:00 13,2 12,8 1009,8 10
16.05.2019 17:00:00 17,0 12,0 - 10
16.05.2019 16:00:00 18,0 11,0 - 10
16.05.2019 15:00:00 18,2 12,5 1008,9 10
16.05.2019 14:00:00 18,0 8,0 - 10
16.05.2019 13:00:00 17,0 9,0 - 10
16.05.2019 12:00:00 18,2 10,9 1009,5 10
16.05.2019 11:00:00 17,0 12,0 - 10
16.05.2019 10:00:00 15,0 10,0 - 10
16.05.2019 09:00:00 11,4 11,0 1010,6 6
16.05.2019 08:00:00 - - - -
16.05.2019 07:00:00 - - - -
16.05.2019 06:00:00 - - - -
16.05.2019 05:00:00 - - - -
16.05.2019 04:00:00 - - - -
16.05.2019 03:00:00 - - - -
16.05.2019 02:00:00 - - - -
16.05.2019 01:00:00 - - - -
16.05.2019 00:00:00 - - - -
15.05.2019 23:00:00 - - - -
15.05.2019 22:00:00 12,0 11,0 - 10
15.05.2019 21:00:00 13,4 11,5 1011,4 10
15.05.2019 20:00:00 16,0 12,0 - 10
15.05.2019 19:00:00 16,0 14,0 - 10
15.05.2019 18:00:00 17,4 15,0 1010,0 10
15.05.2019 17:00:00 - - - -
15.05.2019 16:00:00 - - - -
15.05.2019 15:00:00 21,0 13,4 1009,8 10
15.05.2019 14:00:00 19,0 12,0 - 10

tt = temperature
td = dewpoint
ppp = reduced air pressure
vv = visibility

Next stations